Temperature
14 14 14 15 15 15 15 15 14 14 14 14 14 14 14 14 14 14 14 14 14 14 14 14 15 14 14 14 14 14 14 14 13 13 13 13 13 13 13 13 13 13 13
14 14 14 14 14 14 14 14 14 14 14 14 14 14 14 14 14 14 14 14 14 14 14 14 14 14 14 14 14 14 14 14 13 13 13 13 13 13 13 13 13 12 12
14 14 14 14 14 14 14 14 14 14 14 14 14 14 14 14 13 13 14 14 14 14 14 14 14 14 14 14 14 13 13 13 13 13 13 13 13 13 13 13 12 12 12
13 13 13 14 14 14 14 14 14 14 13 13 14 14 14 13 13 13 13 13 14 14 14 14 14 14 14 13 13 13 13 13 13 13 13 13 13 12 12 12 12 12 12
13 13 13 13 13 13 13 13 13 13 13 13 13 13 13 13 13 13 13 13 13 14 14 14 14 13 13 13 13 13 13 13 13 13 12 12 12 12 12 12 12 12 12
12 12 13 13 13 13 13 13 13 13 13 13 13 13 13 13 13 13 13 13 13 13 13 13 13 13 13 13 13 13 13 12 12 12 12 12 12 12 12 11 11 11 11
12 12 12 12 12 12 13 13 12 12 12 12 12 12 13 13 12 13 13 13 13 13 13 13 13 13 13 13 13 13 12 12 12 12 12 12 12 11 11 11 11 11 11
11 11 12 12 12 12 12 12 12 12 12 12 12 11 11 12 12 12 12 12 12 12 12 12 12 12 12 12 13 12 12 12 12 12 12 11 11 11 11 11 10 10 10
11 11 11 11 11 11 11 11 11 12 11 11 11 11 11 11 11 11 11 11 11 12 12 12 12 12 12 12 12 12 12 12 12 11 11 11 11 11 10 10 10 10 10
10 10 10 10 11 11 11 11 11 11 11 11 11 11 11 11 11 10 11 11 11 11 11 11 11 11 11 11 12 12 12 11 11 11 11 11 10 10 10 10 10 10 10
9 10 10 10 10 10 10 10 10 10 10 10 10 10 10 10 10 10 10 10 10 10 10 11 11 10 11 11 11 11 11 11 11 10 10 10 10 10 10 9 9 9 9
9 9 9 10 10 10 10 10 10 10 10 10 10 10 10 10 10 10 10 10 10 10 10 10 10 10 10 10 10 10 10 10 10 10 10 9 9 9 9 9 9 9 9
8 8 8 9 9 9 9 9 9 9 9 9 9 9 9 9 9 9 9 9 9 9 9 9 9 9 9 9 10 10 10 9 9 9 9 9 9 9 9 9 9 9 8
7 7 8 8 8 8 9 9 9 9 9 9 9 9 9 9 9 9 9 8 8 8 8 8 9 9 9 9 9 9 9 9 9 9 8 8 8 8 8 8 8 8 8
6 7 7 7 8 8 8 8 8 8 8 8 8 8 8 8 8 8 8 8 7 7 7 8 8 8 8 8 8 8 8 8 8 8 8 8 8 8 8 8 8 7 7
6 6 7 7 7 7 7 7 7 7 7 7 7 7 7 8 7 7 7 7 7 7 6 7 7 7 8 8 8 8 8 8 8 8 7 7 8 7 7 7 7 7 7
6 6 6 6 6 6 6 6 6 6 6 6 7 7 7 7 7 7 7 7 6 6 6 6 6 7 7 7 7 7 7 7 7 7 7 7 7 7 7 7 7 6 6
5 5 5 6 6 5 5 6 6 6 6 6 6 6 6 6 6 6 6 6 6 6 6 5 6 6 6 6 6 6 6 6 6 6 6 6 6 6 6 6 6 6 6
5 5 5 5 5 5 5 5 5 5 5 5 5 5 5 5 6 6 6 5 5 5 5 5 5 5 5 5 5 5 5 5 6 6 6 6 6 6 6 6 6 6 6
4 4 4 4 4 4 4 4 4 4 5 5 5 5 5 5 5 5 5 5 5 4 4 4 4 4 4 4 4 4 4 4 5 5 5 5 5 5 5 5 5 5 5
3 3 3 3 3 3 3 4 4 4 4 4 4 4 4 4 4 4 4 4 4 4 3 3 3 3 3 3 3 3 3 3 4 4 4 4 4 4 4 5 5 5 5
3 3 3 3 3 3 3 3 3 3 3 3 3 3 3 3 3 3 3 3 3 3 3 3 3 2 2 2 2 2 2 2 2 3 3 3 3 3 4 4 4 4 4
2 2 2 2 2 2 2 2 2 2 2 2 2 2 2 2 2 2 2 2 2 2 2 2 2 2 2 2 2 2 2 2 2 2 2 2 3 3 3 3 3 3 3
1 1 1 1 1 1 1 2 2 2 2 2 1 1 2 2 1 1 2 2 2 2 2 2 2 2 2 2 2 2 2 2 1 2 2 2 2 2 2 3 3 3 3
1 1 1 1 1 1 1 1 1 1 1 1 1 1 1 1 1 1 1 1 1 1 1 1 1 1 2 2 2 2 1 1 1 1 1 1 1 2 2 2 2 2 2
0 0 0 0 0 1 1 1 1 1 1 1 1 1 0 0 0 0 0 0 0 0 1 1 1 1 1 1 1 1 1 0 -0 0 1 1 1 1 1 1 2 2 2
Wind_Speed
5 4 5 6 7 8 8 7 7 7 7 8 9 9 7 8 7 6 9 15 15 14 13 12 12 12 11 11 10 9 9 8 8 8 8 8 8 8 8 8 8 8 8
4 5 5 5 6 7 8 8 7 7 6 6 6 6 6 7 7 7 9 13 16 15 14 13 13 12 12 11 11 10 9 8 9 9 9 9 9 9 10 10 10 10 10
4 4 5 6 5 7 7 6 7 5 6 6 7 6 5 6 7 8 10 11 13 15 15 14 13 12 12 12 11 11 10 9 9 9 9 9 10 10 11 11 11 11 10
6 5 5 5 5 6 5 5 6 5 5 5 5 6 5 4 6 7 9 10 11 12 14 15 14 12 12 12 12 12 11 11 11 10 10 10 11 11 12 12 12 12 11
7 5 5 4 5 4 5 5 5 5 5 5 5 5 5 5 5 5 6 8 10 10 11 13 14 14 13 13 13 12 12 12 12 12 11 11 12 12 12 12 12 13 13
6 5 5 5 5 5 5 5 5 5 5 5 5 5 5 5 5 5 6 6 7 9 10 10 11 12 14 13 13 13 13 13 12 12 12 12 13 13 13 13 13 13 13
5 4 5 5 5 5 6 6 4 5 5 4 3 3 4 5 5 5 5 4 5 7 9 9 10 10 10 13 14 14 14 14 14 13 13 13 14 14 14 14 14 14 14
4 5 5 5 5 5 5 6 5 4 4 5 4 4 2 3 5 6 5 5 6 5 5 7 8 9 9 10 11 14 14 15 15 15 15 15 15 15 15 15 15 14 14
4 4 5 5 5 5 5 6 7 6 5 5 5 5 4 4 2 3 5 6 5 4 4 5 7 9 10 10 10 12 14 15 15 16 16 16 16 15 15 15 15 15 15
4 4 4 4 5 5 5 6 5 5 6 5 4 4 3 2 3 2 3 4 5 5 5 5 5 8 10 9 10 12 14 15 16 16 17 17 16 16 16 16 15 16 15
3 3 4 3 4 4 5 5 4 5 5 5 5 3 4 3 3 3 4 4 3 4 5 6 5 5 8 9 10 11 13 14 16 17 18 17 18 18 18 17 16 16 16
2 2 3 3 3 3 4 5 5 5 5 5 4 4 4 4 4 3 4 5 5 4 5 6 5 5 5 6 8 10 12 13 15 17 17 18 18 18 18 17 17 17 16
1 2 2 2 2 2 3 4 4 5 5 5 5 4 4 4 3 3 4 4 4 4 4 5 5 4 4 6 7 10 11 12 14 15 17 17 17 17 17 17 17 17 17
2 2 2 2 1 1 2 2 3 4 4 4 4 3 3 3 3 3 3 3 4 4 4 4 3 4 3 4 7 9 9 12 13 15 16 16 15 15 15 16 17 17 16
2 2 2 1 1 1 2 2 2 3 3 3 4 4 4 3 3 3 3 4 5 6 7 4 2 3 3 4 7 9 10 12 14 14 15 14 14 14 15 16 16 15 16
2 2 2 1 1 1 2 2 2 3 3 4 4 4 5 4 3 3 4 4 4 5 7 4 4 4 4 4 8 8 9 12 13 14 14 13 13 14 15 15 15 15 14
2 2 2 1 1 1 2 1 2 3 4 4 4 5 6 5 4 4 4 4 5 5 7 6 4 4 5 5 6 7 8 8 9 12 13 13 13 13 14 14 14 14 14
3 3 2 1 1 0 0 1 2 3 4 4 4 4 5 4 4 4 4 5 5 5 6 8 6 4 5 6 6 6 6 7 8 11 13 12 12 12 12 13 13 13 13
3 3 3 2 1 1 1 0 1 1 2 3 3 3 4 4 4 4 4 5 5 5 5 6 7 5 5 5 5 6 6 6 7 9 11 12 12 13 12 12 12 11 11
4 4 3 3 1 1 1 1 1 1 1 2 1 2 2 3 4 4 4 5 5 5 5 5 6 5 5 4 4 5 6 5 6 6 8 9 11 12 13 12 12 11 11
4 4 4 3 2 1 1 1 1 1 1 2 2 2 2 3 4 4 4 4 4 5 5 5 6 5 5 4 5 4 7 6 6 5 5 6 6 7 9 11 11 11 11
4 4 3 3 3 3 3 4 3 2 2 2 3 3 3 3 4 6 6 7 6 6 6 6 6 7 7 6 5 5 5 6 6 3 5 6 5 6 6 7 10 11 11
4 4 3 3 3 3 5 5 5 2 2 3 3 3 4 4 5 5 6 7 7 8 8 7 8 8 7 6 6 6 6 6 7 5 5 7 4 6 5 7 9 9 9
4 3 3 3 3 4 5 5 5 2 3 3 3 4 4 4 5 5 5 5 6 6 7 6 7 8 7 7 7 8 8 6 6 5 4 5 5 5 5 5 8 9 9
4 4 4 4 4 4 6 6 5 2 3 3 4 4 4 5 7 7 5 6 7 7 7 9 10 9 9 8 6 4 4 4 5 5 3 3 3 4 3 4 5 8 8
4 4 4 3 4 4 7 7 6 2 3 3 4 4 5 6 7 7 5 5 7 7 6 7 7 7 6 6 6 5 5 5 5 4 3 2 3 2 2 2 2 4 5
Wind_Direction
195 192 186 183 186 188 186 187 196 200 203 206 206 203 207 216 208 194 183 187 192 200 209 217 221 224 228 230 233 237 241 245 248 251 255 259 261 266 271 276 279 280 283
198 192 191 187 189 190 190 191 197 199 202 202 210 207 207 213 210 200 188 195 200 202 209 217 222 225 229 232 235 237 239 245 252 256 258 260 263 266 269 272 275 275 274
197 199 195 190 193 192 196 196 199 198 200 202 210 212 208 209 208 203 196 195 200 206 210 216 222 225 228 233 237 238 240 246 250 255 259 262 266 269 272 272 272 272 267
199 198 201 196 194 191 191 199 195 196 201 200 207 214 210 208 212 206 200 198 196 200 208 213 218 223 228 235 239 240 241 244 248 252 257 261 266 271 274 274 273 270 268
202 191 199 199 193 193 191 201 200 191 200 205 211 213 211 210 215 210 205 202 198 195 198 209 213 221 229 236 241 244 245 246 248 252 257 260 265 269 272 274 275 272 268
210 197 197 198 195 196 193 192 202 196 197 202 214 220 222 219 213 213 210 202 201 202 200 203 210 221 227 234 240 245 248 249 250 253 256 259 263 267 270 270 271 273 272
217 201 205 203 198 200 197 191 198 199 203 196 190 216 243 233 221 211 209 205 205 204 203 205 209 214 222 230 236 242 247 250 252 254 257 260 264 266 269 270 272 272 273
215 208 204 203 204 202 198 196 191 201 203 191 178 176 219 242 235 225 215 208 210 198 201 210 212 215 218 221 232 236 242 247 253 256 257 260 263 264 266 267 268 268 271
216 208 209 211 209 201 202 202 198 197 203 205 188 178 185 213 228 231 221 218 210 207 215 211 213 218 222 222 225 231 237 242 250 255 258 260 262 262 263 264 265 265 267
219 214 218 220 215 206 204 207 203 201 194 202 208 211 210 176 178 224 237 224 218 219 222 227 223 222 223 221 224 229 234 239 247 254 258 261 263 263 263 264 265 266 266
228 213 211 215 218 207 203 200 206 207 202 201 205 206 220 227 208 202 228 227 237 229 229 233 230 219 220 222 222 230 234 240 249 255 259 261 263 266 266 264 264 266 266
239 233 217 208 218 213 202 200 200 203 209 212 213 211 206 202 209 216 227 227 236 235 235 232 229 224 224 228 237 241 242 245 250 254 257 260 263 265 266 264 264 265 265
263 255 250 229 226 222 204 195 196 202 206 207 214 223 226 227 219 226 232 243 257 263 240 233 225 215 223 229 242 245 245 248 252 254 257 260 263 265 265 264 266 265 264
273 266 254 243 254 262 209 185 189 204 206 210 219 218 227 237 233 237 227 235 254 256 242 241 234 216 223 236 250 248 250 248 251 255 259 261 263 263 262 263 264 264 264
284 256 241 224 231 256 219 198 198 203 204 214 213 216 227 236 235 240 237 222 229 251 250 242 244 237 252 254 254 251 250 251 252 254 256 258 259 260 258 259 260 261 259
322 284 261 216 209 255 225 204 210 205 206 220 220 219 226 229 232 234 236 236 235 246 259 259 271 274 265 275 265 260 256 256 250 252 256 257 257 259 257 253 252 253 253
337 305 274 221 202 261 234 205 241 226 219 226 230 227 231 227 227 231 235 233 239 246 261 276 275 274 268 270 269 262 262 257 254 252 254 253 254 256 254 252 250 249 248
340 343 335 22 14 333 154 189 251 248 235 232 234 234 240 241 233 235 237 240 242 247 253 271 278 269 265 254 257 259 268 265 259 258 256 254 254 255 254 251 249 247 244
6 7 3 22 16 67 69 336 268 269 264 249 244 243 247 239 237 241 242 240 245 260 253 261 271 274 271 257 263 271 268 267 271 263 260 257 255 254 252 250 248 243 240
20 11 3 7 357 79 81 329 307 285 283 295 278 256 257 250 244 248 253 248 248 250 252 256 265 271 267 259 255 267 278 269 270 274 264 265 263 256 251 249 247 240 233
12 7 5 7 6 25 34 349 317 314 285 286 292 282 275 280 278 270 269 264 259 254 258 262 264 270 271 266 260 266 277 283 276 268 267 265 261 252 245 247 242 234 231
3 8 10 5 359 1 8 4 356 316 290 276 279 284 282 274 286 289 284 281 274 262 256 256 264 264 266 267 266 271 275 284 283 256 268 275 263 259 255 243 243 237 233
3 6 1 359 349 353 2 356 346 311 276 269 269 272 283 293 302 276 286 295 284 279 264 250 256 259 259 261 257 260 263 269 278 271 268 270 263 262 265 259 246 233 234
358 355 353 350 343 346 354 349 343 305 277 272 269 268 273 279 287 298 293 286 278 276 271 258 251 253 253 247 241 245 253 269 287 277 263 263 260 263 273 261 244 231 232
350 347 345 348 349 347 358 350 346 292 279 275 274 277 275 270 294 306 295 282 282 283 290 288 281 274 270 268 266 260 262 266 287 282 259 254 268 283 273 259 251 240 232
343 340 344 347 347 346 350 352 347 307 301 297 289 282 289 295 304 308 289 282 282 286 294 291 290 287 272 262 262 239 234 249 273 272 250 241 256 276 275 275 267 246 230
Height
1504 1506 1508 1510 1513 1515 1517 1519 1521 1523 1526 1528 1529 1531 1533 1534 1536 1537 1537 1538 1539 1540 1541 1541 1542 1543 1543 1543 1544 1544 1544 1544 1544 1544 1543 1543 1542 1542 1541 1540 1539 1538 1537
1500 1502 1504 1506 1509 1511 1513 1515 1517 1520 1522 1524 1526 1528 1529 1531 1532 1533 1534 1535 1536 1537 1538 1539 1539 1540 1540 1541 1541 1541 1541 1541 1541 1541 1541 1540 1539 1539 1538 1537 1536 1535 1534
1495 1497 1500 1502 1505 1507 1509 1512 1514 1516 1518 1520 1522 1524 1525 1527 1529 1530 1531 1532 1533 1533 1534 1535 1536 1537 1537 1538 1538 1538 1538 1538 1538 1538 1537 1537 1536 1535 1534 1534 1533 1532 1531
1490 1493 1495 1497 1500 1503 1505 1507 1509 1511 1513 1515 1517 1519 1521 1523 1524 1526 1527 1528 1529 1530 1531 1531 1532 1533 1533 1534 1534 1535 1534 1534 1534 1534 1533 1533 1532 1531 1531 1530 1529 1528 1527
1485 1488 1490 1493 1495 1498 1500 1502 1505 1507 1508 1510 1512 1514 1516 1518 1520 1521 1523 1524 1525 1526 1526 1527 1528 1529 1529 1530 1530 1531 1531 1531 1530 1530 1529 1529 1528 1527 1526 1525 1524 1523 1523
1480 1483 1485 1488 1490 1492 1494 1497 1500 1502 1504 1506 1508 1509 1511 1513 1515 1516 1518 1519 1520 1521 1522 1523 1524 1524 1525 1526 1526 1526 1526 1526 1526 1525 1525 1524 1523 1522 1521 1521 1520 1519 1518
1475 1477 1479 1482 1485 1487 1489 1492 1494 1497 1499 1502 1503 1505 1507 1508 1510 1511 1513 1514 1515 1516 1517 1518 1519 1519 1520 1520 1521 1521 1521 1521 1521 1520 1520 1519 1518 1517 1516 1515 1514 1514 1513
1470 1472 1474 1476 1479 1482 1484 1486 1489 1492 1494 1496 1498 1499 1501 1504 1504 1506 1507 1508 1510 1511 1512 1513 1513 1514 1514 1515 1515 1516 1516 1516 1515 1515 1514 1513 1513 1512 1511 1510 1509 1508 1507
1464 1466 1468 1471 1474 1476 1478 1481 1484 1486 1488 1491 1493 1494 1495 1496 1498 1500 1501 1502 1504 1505 1506 1507 1508 1508 1509 1509 1509 1509 1510 1510 1509 1509 1508 1508 1507 1506 1505 1504 1503 1502 1501
1459 1461 1463 1466 1468 1471 1473 1476 1478 1480 1483 1485 1487 1489 1491 1491 1493 1494 1496 1497 1498 1499 1500 1501 1501 1502 1502 1502 1503 1503 1503 1503 1503 1502 1502 1501 1501 1500 1499 1498 1497 1495 1494
1454 1456 1458 1460 1462 1465 1467 1470 1473 1475 1477 1479 1481 1483 1485 1486 1487 1488 1488 1490 1491 1492 1494 1494 1494 1495 1495 1496 1496 1496 1496 1496 1496 1496 1495 1495 1494 1493 1492 1491 1490 1489 1488
1449 1451 1453 1455 1457 1459 1462 1465 1467 1469 1471 1474 1476 1478 1480 1481 1482 1482 1482 1483 1483 1484 1487 1487 1488 1488 1488 1489 1489 1489 1489 1489 1489 1488 1488 1488 1487 1486 1485 1484 1483 1482 1481
1445 1447 1448 1450 1452 1454 1456 1459 1462 1464 1466 1468 1470 1472 1474 1476 1477 1477 1478 1477 1477 1478 1479 1479 1480 1481 1481 1481 1482 1482 1482 1482 1482 1481 1481 1480 1480 1479 1478 1477 1476 1475 1474
1441 1443 1444 1446 1447 1449 1451 1453 1456 1458 1460 1462 1464 1466 1468 1470 1471 1472 1472 1472 1472 1471 1471 1471 1472 1473 1473 1474 1474 1475 1474 1474 1474 1474 1473 1473 1472 1471 1470 1469 1468 1467 1466
1438 1439 1440 1441 1443 1445 1447 1448 1450 1452 1455 1457 1458 1460 1462 1463 1465 1466 1467 1467 1467 1465 1463 1463 1465 1465 1465 1466 1466 1467 1466 1466 1466 1466 1466 1465 1464 1463 1462 1461 1460 1459 1459
1434 1435 1435 1437 1439 1440 1442 1444 1446 1447 1449 1451 1453 1455 1456 1457 1459 1460 1461 1461 1461 1461 1458 1457 1457 1457 1458 1458 1458 1459 1459 1459 1458 1458 1457 1457 1456 1455 1454 1453 1452 1451 1451
1432 1431 1432 1433 1434 1436 1438 1439 1441 1442 1444 1445 1447 1449 1450 1451 1453 1454 1454 1455 1455 1455 1452 1450 1452 1451 1451 1450 1450 1451 1451 1450 1450 1450 1449 1448 1448 1447 1446 1445 1444 1444 1443
1428 1428 1429 1429 1431 1432 1433 1435 1436 1438 1439 1440 1441 1442 1444 1446 1447 1447 1448 1448 1448 1448 1447 1445 1444 1444 1443 1443 1443 1443 1443 1443 1442 1441 1441 1440 1439 1439 1438 1437 1437 1436 1435
1426 1426 1426 1426 1427 1428 1430 1431 1432 1433 1434 1434 1435 1436 1438 1439 1439 1440 1440 1441 1441 1441 1441 1439 1437 1437 1436 1436 1435 1435 1435 1434 1434 1433 1433 1432 1432 1431 1430 1429 1429 1428 1428
1423 1424 1424 1424 1425 1425 1426 1427 1428 1428 1428 1429 1430 1431 1431 1432 1433 1433 1434 1434 1434 1434 1434 1433 1431 1430 1429 1429 1429 1427 1426 1426 1425 1425 1424 1424 1423 1422 1422 1422 1421 1420 1420
1423 1422 1422 1421 1422 1422 1422 1423 1423 1423 1423 1424 1424 1425 1426 1427 1427 1427 1427 1427 1427 1427 1426 1426 1425 1424 1422 1421 1421 1420 1420 1418 1417 1417 1416 1415 1414 1413 1413 1413 1413 1413 1413
1422 1421 1420 1419 1419 1419 1419 1419 1419 1419 1419 1419 1420 1420 1420 1421 1421 1421 1421 1421 1422 1421 1419 1419 1418 1417 1415 1415 1415 1414 1414 1412 1409 1410 1409 1407 1407 1405 1405 1405 1404 1405 1406
1420 1419 1419 1418 1417 1416 1416 1416 1416 1416 1416 1415 1415 1415 1415 1416 1416 1415 1415 1415 1415 1415 1415 1414 1412 1411 1410 1409 1409 1408 1407 1405 1403 1402 1402 1399 1399 1398 1398 1398 1398 1398 1399
1420 1418 1417 1416 1415 1413 1412 1412 1412 1412 1412 1412 1411 1411 1411 1411 1410 1410 1409 1409 1408 1408 1408 1407 1406 1405 1404 1403 1402 1402 1400 1399 1398 1397 1396 1393 1392 1392 1392 1392 1392 1393 1393
1418 1417 1416 1414 1412 1411 1409 1409 1409 1408 1408 1408 1407 1407 1407 1406 1405 1405 1404 1403 1402 1401 1401 1400 1400 1399 1398 1397 1397 1396 1394 1393 1391 1389 1390 1389 1387 1386 1386 1386 1387 1387 1387
1417 1415 1414 1412 1410 1408 1407 1406 1406 1405 1404 1403 1403 1403 1402 1401 1401 1400 1399 1398 1396 1394 1394 1393 1392 1391 1391 1390 1389 1389 1387 1387 1385 1383 1383 1384 1382 1382 1381 1380 1381 1381 1382